1491300000.1,141,15.13,74066.5,4.61,-4.21,-8.29,0,*7E
1491300001.27,142,15.13,74068.3,4.61,-4.37,-8.33,0,*71
1491300002.44,143,15.13,74066.0,4.61,-4.49,-8.71,0,*7F
1491300003.62,144,15.13,74064.3,4.61,-4.33,-8.29,0,*78
1491300004.8,145,15.13,74064.5,4.61,-4.25,-8.29,0,*7E
1491300005.98,146,15.06,74060.5,4.61,-4.13,-8.29,0,*78
1491300007.16,147,15.13,74064.8,4.61,-4.37,-8.41,0,*71
1491300008.36,148,15.13,74064.8,4.61,-4.81,-8.93,0,*7C
1491300009.55,149,15.06,74060.3,4.63,-4.53,-8.67,0,*7B
1491300010.77,150,15.13,74064.3,4.63,-4.69,-8.89,0,*7A
1491300011.94,151,15.13,74062.3,4.61,-4.45,-8.67,0,*77
1491300013.12,152,15.13,74062.0,4.61,-4.57,-8.71,0,*70
1491300014.29,153,15.13,74060.0,4.61,-4.33,-8.33,0,*75
1491300015.48,154,15.13,74066.0,4.61,-4.33,-8.41,0,*77
1491300016.66,155,15.13,74066.8,4.61,-4.33,-8.29,0,*78
1491300017.83,156,15.13,74064.0,4.57,-4.57,-8.59,0,*7B
1491300019.0,157,15.13,74070.8,4.57,-4.49,-8.55,0,*79
1491300020.16,158,15.13,74068.3,4.57,-4.49,-8.59,0,*7A
1491300021.37,159,15.13,74066.0,4.61,-4.81,-8.85,0,*7B
1491300022.59,160,15.13,74068.0,4.61,-4.73,-8.81,0,*78
1491300023.77,161,15.13,74068.5,4.61,-4.69,-8.67,0,*7A
1491300024.95,162,15.13,74068.3,4.57,-4.57,-8.55,0,*70
1491300026.15,163,15.13,74066.5,4.57,-4.13,-8.11,0,*71
1491300027.35,164,15.13,74070.8,4.61,-4.09,-7.99,0,*77
1491300028.57,165,15.13,74068.0,4.61,-4.01,-7.87,0,*71
1491300029.77,166,15.13,74070.0,4.61,-4.13,-7.99,0,*7E
1491300030.99,167,15.13,74070.3,4.61,-4.25,-8.11,0,*75
1491300032.19,168,15.13,74068.5,4.61,-4.21,-8.03,0,*7D
1491300033.42,169,15.13,74064.8,4.63,-4.17,-7.99,0,*77
1491300034.63,170,15.13,74064.0,4.61,-4.25,-8.03,0,*70
1491300035.81,171,15.13,74064.3,4.61,-4.57,-8.41,0,*72
1491300036.98,172,15.13,74060.0,4.57,-4.57,-8.33,0,*71
1491300038.19,173,15.13,74062.0,4.61,-4.25,-7.99,0,*7F
1491300039.37,174,15.13,74066.0,4.61,-3.95,-7.53,0,*72
1491300040.61,175,15.13,74066.8,4.63,-3.95,-7.61,0,*70
1491300041.81,176,15.13,74064.3,4.63,-4.53,-8.25,0,*71
1491300042.98,177,15.13,74062.8,4.65,-4.65,-8.25,0,*73
1491300044.22,178,15.13,74062.8,4.63,-5.31,-8.93,0,*77
1491300045.47,179,15.13,74060.5,4.63,-4.81,-8.51,0,*72
1491300046.71,180,15.06,74060.3,4.63,-4.85,-8.51,0,*70
1491300047.93,181,15.13,74064.0,4.63,-4.85,-8.55,0,*75
1491300049.15,182,15.06,74062.8,4.63,-4.69,-8.25,0,*73
1491300050.37,183,15.13,74066.8,4.63,-4.53,-7.99,0,*73
1491300051.61,184,15.13,74068.5,4.63,-4.21,-7.73,0,*75
1491300052.81,185,15.13,74066.0,4.61,-5.03,-8.67,0,*7D
1491300054.0,186,15.13,74066.8,4.61,-4.85,-8.33,0,*70
1491300055.2,187,15.13,74066.3,4.61,-4.49,-7.99,0,*7E
1491300056.41,188,15.13,74064.8,4.61,-4.57,-7.99,0,*7E
1491300057.61,189,15.06,74062.0,4.61,-4.89,-8.55,0,*73
1491300058.81,190,15.13,74064.3,4.57,-4.89,-8.45,0,*7F
1491300060.01,191,15.13,74066.3,4.61,-4.73,-8.17,0,*79
1491300061.17,192,15.13,74066.5,4.57,-4.99,-8.55,0,*7D
1491300062.4,193,15.13,74066.3,4.57,-5.65,-9.15,0,*7B
1491300063.63,194,15.13,74066.5,4.57,-5.77,-9.37,0,*7F
1491300064.81,195,15.13,74066.0,4.57,-5.35,-8.85,0,*70
1491300066.01,196,15.06,74060.8,4.57,-5.23,-9.05,0,*7D
1491300067.24,197,15.13,74066.3,4.55,-5.31,-8.89,0,*78
1491300068.48,198,15.13,74066.0,4.55,-5.55,-9.11,0,*75
1491300069.71,199,15.13,74066.3,4.53,-6.27,-9.83,0,*7F
1491300070.91,200,15.13,74062.0,4.53,-5.19,-8.75,0,*7A
1491300072.13,201,15.13,74070.3,4.53,-5.31,-8.81,0,*7A
1491300073.35,202,15.13,74066.0,4.51,-5.77,-9.31,0,*73
1491300074.56,203,15.13,74066.8,4.51,-6.09,-9.75,0,*78
1491300075.8,204,15.13,74066.5,4.49,-5.93,-9.53,0,*72
1491300076.99,205,15.13,74064.0,4.49,-6.43,-10.01,0,*42
1491300078.19,206,15.06,74056.0,4.49,-6.27,-9.89,0,*7B
1491300079.39,207,15.13,74058.3,4.47,-6.05,-9.79,0,*7B
1491300080.6,208,15.13,74060.3,4.45,-6.23,-9.93,0,*76
1491300081.78,209,15.06,74062.0,4.41,-6.89,-10.53,0,*47
1491300082.98,210,15.06,74066.3,4.41,-6.35,-10.01,0,*4F
1491300084.2,211,15.13,74066.3,4.41,-5.89,-9.57,0,*71
1491300085.4,212,15.13,74066.5,4.41,-5.19,-8.75,0,*7A
1491300086.6,213,15.13,74066.3,4.41,-5.31,-8.93,0,*79
1491300087.79,214,15.13,74068.8,4.41,-5.55,-9.27,0,*72
1491300089.01,215,15.13,74066.8,4.41,-5.73,-9.49,0,*7F
1491300090.24,216,15.13,74064.8,4.39,-5.15,-8.85,0,*72
1491300091.46,217,15.13,74070.0,4.39,-5.11,-8.93,0,*70
1491300092.68,218,15.13,74068.5,4.39,-4.85,-8.59,0,*75
1491300093.87,219,15.13,74068.3,4.41,-5.03,-8.67,0,*79
1491300095.07,220,15.13,74068.5,4.41,-4.77,-8.37,0,*74
1491300096.27,221,15.13,74068.3,4.41,-5.19,-9.05,0,*7C
1491300097.45,222,15.06,74064.5,4.41,-5.35,-9.27,0,*71
1491300098.67,223,15.13,74068.3,4.39,-5.15,-9.19,0,*70
1491300099.9,224,15.13,74068.5,4.39,-5.11,-9.05,0,*7E
1491300101.12,225,15.13,74068.8,4.35,-5.35,-9.37,0,*74
1491300102.35,226,15.13,74066.3,4.39,-5.11,-9.05,0,*7C
1491300103.54,227,15.13,74068.8,4.39,-4.99,-8.93,0,*72
1491300104.76,228,15.13,74070.3,4.39,-4.73,-8.59,0,*7F
1491300105.97,229,15.13,74068.3,4.39,-4.81,-8.71,0,*79
1491300107.18,230,15.13,74070.3,4.39,-4.73,-8.67,0,*7B
1491300108.4,231,15.13,74066.8,4.39,-4.73,-8.67,0,*7A
1491300109.56,232,15.13,74070.0,4.41,-4.65,-8.67,0,*71
1491300110.76,233,15.13,74068.5,4.41,-4.53,-8.51,0,*70
1491300111.96,234,15.06,74066.8,4.41,-4.89,-8.93,0,*7E
1491300113.19,235,15.13,74064.3,4.41,-5.03,-9.15,0,*73
1491300114.39,236,15.13,74066.5,4.41,-5.03,-9.31,0,*76
1491300115.58,237,15.13,74066.0,4.41,-4.93,-9.27,0,*78
1491300116.8,238,15.13,74068.0,4.39,-4.81,-9.19,0,*76
1491300118.02,239,15.13,74064.8,4.39,-4.73,-9.19,0,*7A
1491300119.23,240,15.13,74066.5,4.35,-4.69,-9.23,0,*7A
1491300120.45,241,15.13,74064.0,4.39,-4.99,-9.49,0,*74
1491300121.67,242,15.13,74060.3,4.39,-5.47,-10.15,0,*44
1491300122.88,243,15.13,74062.0,4.35,-5.51,-10.05,0,*4F
1491300124.11,244,15.13,74062.3,4.35,-5.15,-9.75,0,*77
1491300125.36,245,15.13,74062.3,4.35,-5.15,-9.49,0,*79
1491300126.58,246,15.13,74066.0,4.31,-4.85,-9.23,0,*7A
1491300127.81,247,15.13,74064.0,4.31,-4.77,-9.27,0,*72
1491300129.06,248,15.13,74060.3,4.31,-5.19,-9.83,0,*7A
1491300130.28,249,15.13,74060.8,4.29,-5.23,-9.93,0,*7A
1491300131.49,250,15.13,74058.3,4.29,-5.23,-10.23,0,*41
1491300132.72,251,15.13,74060.0,4.27,-6.19,-11.29,0,*4F
1491300133.93,252,15.13,74062.8,4.25,-6.31,-11.41,0,*4A
1491300135.11,253,15.13,74062.5,4.23,-5.43,-10.49,0,*42
1491300136.34,254,15.13,74060.3,4.21,-5.11,-10.23,0,*4C
1491300137.55,255,15.13,74062.3,4.19,-5.43,-10.71,0,*46
1491300138.81,256,15.13,74060.8,4.21,-5.27,-10.41,0,*4F
1491300140.02,257,15.13,74054.5,4.19,-4.81,-10.01,0,*4C
1491300141.2,258,15.13,74052.5,4.19,-4.57,-9.71,0,*77
1491300142.44,259,15.13,74048.5,4.13,-5.07,-10.27,0,*43
1491300143.68,260,15.06,74046.5,4.13,-4.81,-10.01,0,*42
1491300144.89,261,15.13,74052.0,4.11,-4.89,-10.31,0,*4A
1491300146.12,262,15.13,74048.5,4.09,-5.43,-10.79,0,*4B
1491300147.36,263,15.13,74052.5,4.09,-5.43,-10.67,0,*45
1491300148.6,264,15.06,74048.3,4.05,-4.77,-10.01,0,*48
1491300149.84,265,15.13,74052.5,4.05,-4.81,-10.15,0,*45
1491300151.07,266,15.13,74052.0,4.05,-4.81,-10.09,0,*4B
1491300152.31,267,15.13,74048.0,4.03,-5.19,-10.41,0,*40
1491300153.55,268,15.13,74050.3,4.01,-5.39,-10.63,0,*4F
1491300154.8,269,15.13,74052.0,3.97,-4.77,-9.83,0,*7B
1491300156.02,270,15.13,74052.0,3.97,-4.49,-9.57,0,*77
1491300157.22,271,15.13,74052.5,3.95,-4.65,-9.71,0,*7E
1491300158.42,272,15.13,74050.5,3.95,-4.29,-9.19,0,*7B
1491300159.59,273,15.13,74054.0,3.93,-4.41,-9.05,0,*7F
1491300160.76,274,15.13,74050.8,3.93,-4.45,-8.89,0,*79
1491300161.93,275,15.13,74052.8,3.89,-4.61,-8.93,0,*7E
1491300163.18,276,15.13,74048.5,3.87,-4.89,-9.11,0,*7E
1491300164.43,277,15.13,74052.3,3.87,-5.15,-9.11,0,*7B
1491300165.65,278,15.13,74050.5,3.85,-4.81,-8.51,0,*7F
1491300166.87,279,15.13,74044.8,3.83,-4.53,-8.03,0,*70
1491300168.09,280,15.13,74050.5,3.83,-4.53,-7.65,0,*79
1491300169.3,281,15.13,74048.3,3.81,-4.57,-7.39,0,*77
1491300170.49,282,15.13,74048.8,3.79,-5.51,-8.33,0,*71
1491300171.7,283,15.13,74054.5,3.79,-6.55,-9.05,0,*73
1491300172.9,284,15.13,74054.5,3.75,-6.43,-8.71,0,*7D
1491300174.12,285,15.13,74056.3,3.71,-6.27,-8.41,0,*79
1491300175.34,286,15.13,74058.0,3.71,-5.97,-7.95,0,*74
1491300176.56,287,15.13,74058.3,3.65,-5.47,-7.43,0,*76
1491300177.79,288,15.13,74054.8,3.61,-5.97,-7.77,0,*77
1491300178.98,289,15.13,74050.5,3.63,-5.77,-7.53,0,*7C
1491300180.21,290,15.13,74048.0,3.61,-5.39,-6.97,0,*75
1491300181.46,291,15.13,74044.5,3.61,-5.27,-7.01,0,*75
1491300182.66,292,15.13,74050.8,3.59,-4.77,-6.47,0,*7A
1491300183.86,293,15.13,74054.3,3.59,-4.13,-5.73,0,*7D
1491300185.03,294,15.13,74058.0,3.59,-4.53,-6.35,0,*7F
1491300186.23,295,15.13,74058.0,3.59,-4.45,-6.23,0,*7E
1491300187.46,296,15.13,74058.3,3.59,-4.01,-5.81,0,*76
1491300188.69,297,15.13,74054.3,3.57,-4.37,-6.23,0,*77
1491300189.95,298,15.13,74054.5,3.61,-4.01,-5.81,0,*73
1491300191.15,299,15.06,74048.8,3.59,-4.13,-5.93,0,*79
1491300192.37,300,15.13,74056.5,3.59,-3.91,-5.85,0,*72
1491300193.6,301,15.13,74054.3,3.61,-3.75,-5.77,0,*7F
1491300194.84,302,15.13,74052.5,3.61,-3.63,-5.55,0,*7B
1491300196.04,303,15.13,74056.5,3.61,-3.95,-5.97,0,*7D
1491300197.25,304,15.13,74056.3,3.61,-3.95,-6.09,0,*7E
1491300198.43,305,15.13,74062.0,3.63,-4.25,-6.47,0,*7B
1491300199.63,306,15.13,74060.8,3.61,-4.37,-6.47,0,*79
1491300200.84,307,15.13,74060.3,3.63,-4.21,-6.23,0,*7F
1491300202.07,308,15.13,74062.0,3.61,-4.21,-6.19,0,*7B
1491300203.25,309,15.13,74066.5,3.63,-3.87,-5.97,0,*76
1491300204.43,310,15.13,74066.5,3.63,-4.13,-6.09,0,*70
1491300205.68,311,15.13,74066.0,3.61,-5.31,-7.27,0,*7F
1491300206.93,312,15.06,74060.3,3.61,-5.07,-6.97,0,*73
1491300208.15,313,15.13,74062.8,3.61,-4.77,-6.59,0,*76
1491300209.37,314,15.13,74064.8,3.59,-5.03,-6.81,0,*7D
1491300210.56,315,15.13,74064.5,3.59,-4.93,-6.73,0,*79
1491300211.79,316,15.13,74064.0,3.57,-4.73,-6.43,0,*79
1491300213.02,317,15.13,74062.8,3.57,-4.29,-5.77,0,*73
1491300214.23,318,15.13,74060.3,3.59,-4.13,-5.69,0,*74
1491300215.43,319,15.13,74060.5,3.59,-4.13,-5.69,0,*75
1491300216.64,320,15.13,74064.5,3.61,-3.87,-5.39,0,*7B
1491300217.85,321,15.13,74066.8,3.59,-3.75,-5.31,0,*74
1491300219.04,322,15.13,74066.0,3.59,-3.91,-5.43,0,*78
1491300220.23,323,15.13,74066.5,3.61,-4.53,-6.09,0,*76
1491300221.46,324,15.13,74062.8,3.57,-4.29,-5.73,0,*77
1491300222.65,325,15.06,74064.3,3.59,-4.13,-5.55,0,*75
1491300223.88,326,15.13,74064.8,3.59,-3.67,-5.19,0,*7A
1491300225.1,327,15.13,74064.5,3.63,-3.75,-5.27,0,*7C
1491300226.29,328,15.13,74064.8,3.59,-3.91,-5.35,0,*73
1491300227.53,329,15.13,74070.0,3.61,-3.75,-5.19,0,*7D
1491300228.79,330,15.06,74064.8,3.61,-3.71,-5.03,0,*7A
1491300229.99,331,15.06,74068.3,3.63,-3.87,-5.15,0,*77
1491300231.22,332,15.13,74068.0,3.65,-3.91,-5.23,0,*70
1491300232.41,333,15.13,74066.0,3.65,-4.21,-5.39,0,*76
1491300233.62,334,15.13,74066.0,3.65,-4.61,-5.93,0,*75
1491300234.85,335,15.06,74062.0,3.65,-4.69,-5.93,0,*7C
1491300236.04,336,15.06,74066.8,3.63,-4.49,-5.69,0,*7E
1491300237.23,337,15.13,74070.0,3.65,-4.25,-5.39,0,*76
1491300238.45,338,15.13,74070.0,3.65,-3.79,-4.85,0,*71
1491300239.66,339,15.13,74066.3,3.63,-4.05,-5.23,0,*77
1491300240.87,340,15.13,74070.0,3.63,-3.87,-5.03,0,*76
1491300242.09,341,15.13,74064.3,3.65,-4.09,-5.15,0,*77
1491300243.27,342,15.13,74066.8,3.65,-4.25,-5.35,0,*78
1491300244.5,343,15.13,74064.0,3.65,-4.69,-5.77,0,*77
1491300245.72,344,15.13,74070.0,3.65,-3.95,-5.03,0,*77
1491300246.95,345,15.13,74066.8,3.67,-4.61,-5.65,0,*78
1491300248.13,346,15.13,74066.8,3.65,-4.57,-5.51,0,*7B
1491300249.31,347,15.13,74064.5,3.65,-4.45,-5.39,0,*77
1491300250.53,348,15.13,74068.3,3.65,-4.69,-5.73,0,*78
1491300251.76,349,15.13,74068.8,3.65,-4.81,-5.73,0,*7F
1491300253.0,350,15.13,74068.8,3.71,-4.33,-5.23,0,*7E
1491300254.22,351,15.13,74072.8,3.65,-4.21,-5.11,0,*78
1491300255.43,352,15.06,74070.8,3.65,-4.33,-5.23,0,*79
1491300256.66,353,15.06,74068.0,3.67,-4.17,-4.93,0,*76
1491300257.88,354,15.13,74070.3,3.65,-4.33,-5.15,0,*7A
1491300259.11,355,15.06,74070.3,3.71,-4.41,-5.19,0,*77
1491300260.35,356,15.13,74072.5,3.67,-4.25,-5.03,0,*7A
1491300261.59,357,15.13,74072.5,3.67,-4.57,-5.27,0,*78
1491300262.8,358,15.13,74070.5,3.67,-4.57,-5.35,0,*74
1491300264.04,359,15.13,74072.8,3.67,-4.33,-5.03,0,*72
1491300265.25,360,15.06,74072.5,3.67,-4.05,-4.61,0,*78
1491300266.46,361,15.06,74072.0,3.71,-3.79,-4.41,0,*70
1491300267.67,362,15.06,74072.0,3.71,-4.05,-4.65,0,*79
1491300268.86,363,15.06,74072.8,3.73,-3.91,-4.53,0,*75
1491300270.07,364,15.06,74070.5,3.73,-4.37,-4.89,0,*7E
1491300271.27,365,15.06,74068.8,3.73,-4.25,-4.73,0,*79
1491300272.5,366,15.06,74068.3,3.75,-4.41,-5.03,0,*78
1491300273.7,367,15.06,74070.8,3.75,-4.09,-4.49,0,*7A
1491300274.91,368,15.13,74072.3,3.77,-3.71,-4.25,0,*75
1491300276.09,369,15.13,74070.0,3.77,-4.05,-4.49,0,*7A
1491300277.27,370,15.06,74068.8,3.77,-3.95,-4.37,0,*75
1491300278.46,371,15.06,74070.3,3.77,-3.95,-4.37,0,*74
1491300279.68,372,15.06,74068.0,3.79,-3.67,-4.05,0,*75
1491300280.89,373,15.06,74068.3,3.79,-3.95,-4.25,0,*7B
1491300282.09,374,15.06,74068.8,3.81,-3.67,-4.09,0,*78
1491300283.3,375,15.06,74064.5,3.83,-3.87,-4.29,0,*77
1491300284.53,376,15.06,74068.8,3.83,-4.01,-4.25,0,*71
1491300285.74,377,15.06,74066.8,3.83,-3.95,-4.25,0,*7A
1491300286.93,378,15.06,74066.8,3.85,-3.95,-4.29,0,*7F
1491300288.11,379,15.06,74068.0,3.85,-4.05,-4.37,0,*7F
1491300289.28,380,15.06,74066.0,3.85,-4.13,-4.41,0,*7F
1491300290.48,381,15.06,74066.8,3.87,-4.13,-4.49,0,*74
1491300291.71,382,15.06,74064.3,3.87,-4.33,-4.69,0,*77
1491300292.93,383,15.06,74066.3,3.87,-4.45,-4.77,0,*78
1491300294.13,384,15.06,74064.8,3.89,-4.49,-4.77,0,*7D
1491300295.35,385,15.06,74068.0,3.89,-4.69,-4.89,0,*7F
1491300296.56,386,15.06,74064.3,3.89,-4.57,-4.85,0,*7D
1491300297.74,387,15.06,74072.8,3.89,-4.09,-4.33,0,*7A
1491300298.92,388,15.06,74070.0,3.93,-3.95,-4.21,0,*7F
1491300300.12,389,15.06,74068.5,3.93,-4.53,-4.73,0,*74
1491300301.33,390,15.06,74068.8,3.95,-4.49,-4.77,0,*75
1491300302.59,391,15.06,74064.8,3.95,-4.89,-5.19,0,*71
1491300303.84,392,15.06,74068.3,3.95,-5.07,-5.31,0,*7F
1491300305.1,393,15.06,74060.5,3.97,-4.93,-5.27,0,*77
1491300306.35,394,15.06,74068.3,3.97,-4.77,-5.03,0,*7C
1491300307.59,395,15.06,74066.0,3.97,-5.03,-5.39,0,*76
1491300308.82,396,15.06,74064.3,3.97,-4.61,-4.93,0,*71
1491300310.08,397,15.06,74064.8,3.97,-5.31,-5.69,0,*70
1491300311.32,398,15.06,74066.8,3.97,-5.47,-5.85,0,*7C
1491300312.55,399,15.06,74066.5,3.99,-5.27,-5.69,0,*77
1491300313.79,400,15.06,74070.5,3.99,-5.23,-5.65,0,*78
1491300315.03,401,15.06,74068.5,3.97,-5.85,-6.31,0,*79
1491300316.29,402,15.06,74066.5,3.97,-5.15,-5.61,0,*75
1491300317.5,403,15.06,74066.3,3.99,-5.35,-5.69,0,*70
1491300318.71,404,15.06,74066.5,3.99,-5.47,-5.93,0,*77
1491300319.93,405,15.06,74068.3,3.99,-5.51,-5.89,0,*7A
1491300321.16,406,15.06,74070.3,3.99,-5.27,-5.69,0,*76
1491300322.37,407,15.06,74068.8,3.99,-4.89,-5.35,0,*7B
1491300323.58,408,15.06,74068.5,3.99,-5.23,-5.55,0,*73
1491300324.82,409,15.06,74066.8,4.01,-5.47,-5.81,0,*7F
1491300326.05,410,15.06,74068.5,4.01,-5.39,-5.81,0,*7E
1491300327.25,411,15.06,74068.5,4.01,-4.99,-5.39,0,*77
1491300328.48,412,15.06,74070.0,4.03,-5.23,-5.65,0,*7F
1491300329.66,413,15.06,74070.8,4.03,-5.51,-5.97,0,*76
1491300330.86,414,15.0,74062.8,4.03,-5.65,-6.09,0,*72
1491300332.09,415,15.06,74068.5,4.03,-5.23,-5.73,0,*7F
1491300333.29,416,15.06,74066.5,4.03,-5.35,-5.77,0,*7F
1491300334.49,417,15.06,74070.0,4.03,-5.07,-5.43,0,*78
1491300335.7,418,15.06,74068.8,4.07,-5.15,-5.47,0,*74
1491300336.91,419,15.06,74066.8,4.07,-5.39,-5.85,0,*75
1491300338.14,420,15.06,74070.3,4.07,-5.69,-6.27,0,*71
1491300339.34,421,15.06,74066.3,4.07,-5.81,-6.35,0,*75
1491300340.57,422,15.06,74066.0,4.07,-5.81,-6.23,0,*71
1491300341.78,423,15.0,74062.0,4.07,-5.69,-6.09,0,*7E
1491300343.01,424,15.06,74068.3,4.11,-5.77,-6.19,0,*70
1491300344.21,425,15.06,74066.5,4.09,-6.05,-6.35,0,*70
1491300345.42,426,15.06,74064.8,4.09,-6.01,-6.35,0,*77
1491300346.66,427,15.06,74066.0,4.11,-5.77,-6.19,0,*73
1491300347.88,428,15.06,74064.5,4.11,-5.27,-5.65,0,*71
1491300349.12,429,15.06,74068.5,4.09,-5.27,-5.55,0,*7A
1491300350.34,430,15.06,74066.0,4.13,-5.73,-6.09,0,*72
1491300351.55,431,15.06,74068.0,4.13,-6.09,-6.43,0,*73
1491300352.76,432,15.06,74066.8,4.13,-6.09,-6.39,0,*7D
1491300353.99,433,15.06,74066.5,4.17,-5.97,-6.27,0,*73
1491300355.23,434,15.06,74070.5,4.17,-5.73,-6.23,0,*7A
1491300356.47,435,15.06,74068.0,4.17,-5.85,-6.39,0,*79
1491300357.69,436,15.06,74068.3,4.17,-5.35,-6.23,0,*7A
1491300358.94,437,15.06,74066.5,4.17,-4.93,-5.93,0,*7E
1491300360.2,438,15.06,74066.3,4.17,-5.03,-5.69,0,*7C
1491300361.44,439,15.06,74070.5,4.21,-5.03,-5.51,0,*73
1491300362.66,440,15.06,74070.3,4.21,-5.77,-6.09,0,*70
1491300363.92,441,15.06,74068.5,4.21,-5.93,-6.23,0,*73
1491300365.12,442,15.06,74070.5,4.21,-6.01,-6.31,0,*7B
1491300366.38,443,15.06,74068.8,4.21,-5.69,-6.19,0,*7D
1491300367.63,444,15.06,74068.5,4.25,-6.19,-6.63,0,*77
1491300368.86,445,15.06,74068.3,4.25,-6.39,-6.93,0,*7B
1491300370.06,446,15.06,74068.3,4.25,-6.13,-6.89,0,*7B
1491300371.25,447,15.06,74072.0,4.25,-5.97,-6.77,0,*74
1491300372.45,448,15.06,74066.5,4.27,-6.13,-7.05,0,*72
1491300373.65,449,15.06,74066.8,4.29,-6.13,-7.05,0,*7D
1491300374.88,450,15.06,74066.3,4.29,-6.27,-7.31,0,*75
1491300376.11,451,15.06,74066.3,4.29,-6.23,-7.31,0,*70
1491300377.34,452,15.06,74068.5,4.29,-6.23,-7.43,0,*76
1491300378.54,453,15.06,74066.8,4.29,-6.23,-7.53,0,*76
1491300379.75,454,15.06,74070.0,4.31,-6.43,-7.83,0,*73
1491300380.97,455,15.06,74068.5,4.33,-6.35,-7.77,0,*7A
1491300382.17,456,15.06,74070.0,4.31,-6.85,-8.41,0,*7A
1491300383.38,457,15.06,74068.5,4.33,-6.35,-8.03,0,*74
1491300384.59,458,15.06,74066.5,4.33,-6.09,-7.91,0,*70
1491300385.79,459,15.06,74066.3,4.33,-6.09,-8.03,0,*75
1491300386.99,460,15.06,74070.0,4.33,-6.23,-8.33,0,*74
1491300388.21,461,15.06,74066.8,4.39,-6.27,-8.41,0,*7E
1491300389.41,462,15.06,74070.3,4.39,-6.05,-8.37,0,*7C
1491300390.62,463,15.06,74066.0,4.39,-6.05,-8.37,0,*7D
1491300391.81,464,15.06,74068.0,4.35,-6.39,-8.93,0,*77
1491300393.01,465,15.06,74070.8,4.39,-6.43,-9.23,0,*7D
1491300394.21,466,15.06,74064.5,4.39,-6.43,-9.31,0,*7D
1491300395.41,467,15.06,74068.3,4.39,-6.01,-8.97,0,*77
1491300396.64,468,15.0,74064.8,4.39,-6.19,-9.23,0,*7F
1491300397.89,469,15.06,74066.3,4.39,-6.19,-9.37,0,*7B
1491300399.12,470,15.0,74064.0,4.39,-5.89,-9.23,0,*7C
1491300400.35,471,15.06,74064.3,4.39,-5.93,-9.23,0,*76
1491300401.57,472,15.06,74064.3,4.35,-6.05,-9.37,0,*70
1491300402.83,473,15.0,74064.3,4.39,-5.93,-9.37,0,*71
1491300404.09,474,15.06,74070.0,4.39,-5.85,-9.37,0,*71
1491300405.29,475,15.06,74068.0,4.35,-5.47,-9.23,0,*77
1491300406.5,476,15.0,74066.3,4.39,-4.93,-8.71,0,*76
1491300407.72,477,15.06,74066.0,4.39,-5.11,-8.97,0,*74
1491300408.95,478,15.0,74066.3,4.35,-5.07,-8.97,0,*70
1491300410.16,479,15.06,74066.8,4.35,-4.61,-8.37,0,*7A
1491300411.38,480,15.06,74066.0,4.35,-4.05,-7.77,0,*75
1491300412.59,481,15.0,74066.3,4.35,-3.83,-7.49,0,*70
1491300413.8,482,15.0,74066.0,4.33,-4.09,-7.61,0,*7A
1491300415.01,483,15.0,74066.0,4.33,-3.51,-6.89,0,*76
1491300416.19,484,15.06,74066.3,4.33,-2.87,-6.05,0,*7F
1491300417.37,485,15.06,74066.5,4.33,-3.19,-6.09,0,*74
1491300418.56,486,15.06,74066.3,4.33,-2.95,-5.55,0,*78
1491300419.77,487,15.06,74066.8,4.33,-2.83,-5.19,0,*76
1491300421.0,488,15.06,74068.3,4.33,-2.75,-5.03,0,*7B
1491300422.22,489,15.0,74062.5,4.33,-3.07,-5.27,0,*78
1491300423.45,490,15.06,74070.3,4.31,-3.11,-5.11,0,*70
1491300424.69,491,15.0,74066.0,4.31,-3.11,-4.89,0,*71
1491300425.92,492,15.0,74066.0,4.31,-3.07,-4.85,0,*79
1491300427.13,493,15.06,74066.5,4.31,-2.87,-4.53,0,*7A
1491300428.32,494,15.06,74068.0,4.29,-2.79,-4.29,0,*78
1491300429.52,495,15.0,74066.0,4.29,-2.71,-3.87,0,*72
1491300430.71,496,15.06,74070.0,4.27,-2.39,-3.51,0,*78
1491300431.89,497,15.0,74068.5,4.27,-2.83,-3.67,0,*7D
1491300433.1,498,15.0,74070.8,4.25,-3.27,-3.79,0,*70
1491300434.27,499,15.0,74066.3,4.27,-3.19,-3.79,0,*7E
1491300435.44,500,15.06,74064.5,4.27,-3.15,-4.17,0,*7C
1491300436.64,501,15.0,74066.0,4.27,-3.15,-4.73,0,*7F
1491300437.81,502,15.0,74062.0,4.27,-2.83,-4.61,0,*71
1491300439.02,503,15.0,74066.3,4.25,-2.19,-4.21,0,*75
1491300440.22,504,15.0,74066.5,4.25,-2.27,-4.29,0,*77
1491300441.41,505,15.0,74066.3,4.25,-2.15,-4.09,0,*75
1491300442.58,506,15.06,74064.3,4.27,-2.27,-4.09,0,*75
1491300443.82,507,15.0,74064.0,4.25,-1.95,-3.55,0,*72
1491300445.01,508,15.0,74060.8,4.23,-1.91,-3.23,0,*7E
1491300446.2,509,15.0,74060.8,4.25,-2.15,-3.31,0,*75
1491300447.4,510,15.0,74062.8,4.25,-2.15,-3.07,0,*78
1491300448.59,511,15.0,74064.0,4.25,-2.27,-3.15,0,*7B
1491300449.79,512,15.06,74068.5,4.25,-2.39,-2.83,0,*79
1491300450.97,513,15.06,74068.0,4.23,-2.95,-3.35,0,*74
1491300452.16,514,15.0,74066.0,4.25,-2.79,-3.07,0,*76
1491300453.39,515,15.0,74066.8,4.25,-2.75,-2.95,0,*71
1491300454.59,516,15.0,74066.0,4.25,-2.91,-3.07,0,*72
1491300455.81,517,15.0,74066.8,4.25,-3.03,-3.43,0,*79
1491300457.01,518,15.0,74064.5,4.25,-3.15,-3.95,0,*7A
1491300458.17,519,15.06,74068.0,4.27,-2.91,-4.17,0,*79
1491300459.37,520,15.06,74066.0,4.27,-2.67,-4.29,0,*77
1491300460.57,521,15.0,74066.8,4.27,-2.63,-4.21,0,*7A
1491300461.74,522,15.0,74066.0,4.27,-2.39,-3.95,0,*7E
1491300462.92,523,15.06,74070.0,4.29,-2.39,-3.91,0,*75
1491300464.12,524,15.0,74068.8,4.27,-2.47,-3.95,0,*71
1491300465.29,525,15.0,74064.8,4.27,-2.95,-4.17,0,*72
1491300466.46,526,15.0,74068.0,4.27,-3.03,-4.33,0,*79
1491300467.64,527,15.06,74068.8,4.29,-2.91,-4.25,0,*7B
1491300468.82,528,15.0,74068.3,4.27,-3.03,-4.29,0,*7C
1491300469.99,529,15.0,74066.8,4.27,-3.15,-4.33,0,*71
1491300471.17,530,15.06,74068.3,4.27,-3.15,-4.33,0,*79
1491300472.39,531,15.06,74068.0,4.27,-3.43,-4.73,0,*7F
1491300473.57,532,15.06,74068.5,4.27,-3.19,-4.57,0,*75
1491300474.74,533,15.0,74068.0,4.27,-3.07,-4.49,0,*74
1491300475.93,534,15.0,74066.0,4.27,-2.67,-4.09,0,*70
1491300477.11,535,15.0,74064.8,4.27,-3.03,-4.49,0,*76
1491300478.28,536,15.0,74066.5,4.27,-2.91,-4.29,0,*79
1491300479.46,537,15.0,74064.0,4.27,-2.95,-4.37,0,*73
1491300480.64,538,15.0,74066.3,4.27,-3.15,-4.37,0,*75
1491300481.86,539,15.06,74070.8,4.27,-3.55,-4.69,0,*7B
1491300483.04,540,15.0,74068.3,4.27,-3.83,-5.35,0,*76
1491300484.25,541,15.0,74064.3,4.27,-3.95,-5.61,0,*71
1491300485.48,542,15.0,74064.3,4.27,-3.43,-5.27,0,*7B
1491300486.71,543,15.0,74066.5,4.29,-3.67,-5.81,0,*7E
1491300487.93,544,15.0,74064.0,4.27,-3.55,-5.73,0,*7B
1491300489.14,545,15.0,74064.0,4.25,-3.79,-6.05,0,*74
1491300490.35,546,15.0,74070.0,4.27,-3.91,-6.27,0,*73
1491300491.52,547,15.0,74068.5,4.27,-3.79,-6.13,0,*73
1491300492.72,548,15.0,74066.3,4.27,-3.31,-5.73,0,*75
1491300493.9,549,15.0,74068.8,4.27,-3.07,-5.39,0,*7F
1491300495.07,550,15.0,74070.3,4.27,-2.95,-5.35,0,*71
1491300496.26,551,15.0,74066.8,4.29,-3.27,-5.35,0,*76
1491300497.44,552,15.0,74064.0,4.27,-3.27,-5.39,0,*77
1491300498.61,553,15.06,74068.3,4.29,-3.23,-5.35,0,*70
1491300499.83,554,15.0,74064.0,4.29,-3.47,-5.55,0,*73
1491300501.02,555,15.0,74064.5,4.29,-3.27,-5.35,0,*72
1491300502.22,556,15.0,74064.5,4.29,-2.79,-4.77,0,*7C
1491300503.45,557,15.06,74068.0,4.31,-2.83,-4.85,0,*7C
1491300504.68,558,15.0,74064.8,4.33,-2.75,-4.73,0,*71
1491300505.89,559,15.0,74068.3,4.33,-2.87,-4.89,0,*78
1491300507.1,560,15.06,74070.0,4.33,-2.99,-5.11,0,*7D
1491300508.3,561,15.06,74070.0,4.33,-2.83,-4.77,0,*76
1491300509.54,562,15.0,74070.8,4.39,-3.15,-5.07,0,*77
1491300510.78,563,15.0,74066.8,4.35,-3.31,-5.23,0,*7A
1491300512.01,564,15.0,74064.3,4.35,-3.19,-5.07,0,*71
1491300513.24,565,15.0,74070.0,4.39,-3.03,-4.73,0,*75
1491300514.47,566,15.06,74070.0,4.35,-2.55,-4.37,0,*78
1491300515.66,567,15.0,74068.3,4.39,-2.15,-3.83,0,*79
1491300516.89,568,15.0,74068.0,4.39,-2.67,-4.21,0,*7C
1491300518.12,569,15.0,74066.3,4.39,-3.19,-4.69,0,*79
1491300519.35,570,15.0,74066.8,4.39,-3.39,-4.73,0,*78
1491300520.58,571,15.0,74066.8,4.39,-3.31,-4.81,0,*7C
1491300521.78,572,15.0,74068.0,4.39,-3.03,-4.49,0,*7A
1491300522.98,573,15.0,74070.3,4.39,-2.91,-4.33,0,*7C
1491300524.2,574,15.0,74070.5,4.39,-2.55,-3.83,0,*7F
1491300525.38,575,15.0,74070.0,4.41,-2.87,-4.33,0,*72
1491300526.56,576,15.0,74068.5,4.41,-3.03,-4.41,0,*79
1491300527.76,577,15.0,74070.0,4.43,-2.99,-4.37,0,*79
1491300528.94,578,15.06,74070.8,4.41,-3.07,-4.37,0,*72